2018-096K (43728 NORAD) Tracking and Keplerian Element Data

This shows tracking and keplerian element data for the satellite.

Feedback or suggestion? Click here.




ElementValue
Catalog43728
Name2018-096K
Epoch Orbit172
Epoch Day344.50473779
Epoch Year2018
RAAN49.5109
Inclination97.4846
Eccentricity0.0016852
Argument of Perigee287.6889
Mean Anonmoly72.2509
Mean Motion15.26160521
Decay Rate2.248E-05
L11 43728U 18096K 18344.50473779 .00002248 00000-0 89623-4 0 9998
L22 43728 97.4846 49.5109 0016852 287.6889 72.2509 15.26160521 1726

Live tracking and technical data element details for 2018-096K (NORAD 43728). 2018-096K can be tracked NOW for your location showing map with azimuth and elevation plus other details from your city location.

Track the satellite on the map from your city or location and see movement details for azimuth, elevation, latitude, longitude, range, height, and movement on the map or in text.







IsCatalogInMostPopularTable: catalog: 43728, numindb: 5
Update: records affected: 1



GetName: 43728 2018-096K

Hit Count: updated at: Tue, 11 Dec 2018 03:29:43 GMT